Lexington, KY

1:29 PM EDT on May 21, 2018 (GMT -0400)
Blue Grass

Weather History for KLEX - September, 2012

Change the Weather History Date:

Tuesday, September 18, 2012

  Actual Average Record
Temperature  
Mean Temperature 58 °F 67 °F  
Max Temperature 66 °F 78 °F 96 °F (1953)
Min Temperature 50 °F 57 °F 39 °F (1937)
Degree Days  
Heating Degree Days 7 2  
Month to date heating degree days 11 12  
Since 1 July heating degree days 11 14  
Cooling Degree Days 0 4  
Month to date cooling degree days 112 110  
Year to date cooling degree days 1340 1127  
Growing Degree Days 10 (Base 50)    
Moisture  
Dew Point 60 °F    
Average Humidity 79    
Maximum Humidity 100    
Minimum Humidity 58    
Precipitation  
Precipitation 0.32 in 0.09 in 1.10 in (1875)
Month to date precipitation 3.54 1.75  
Year to date precipitation 31.15 33.42  
Snow  
Snow 0.00 in 0.00 in - ()
Month to date snowfall 0.0 0.0  
Since 1 July snowfall 0.0 0.0  
Since 1 September snowfall 0.0 0.0  
Snow Depth 0.00 in    
Sea Level Pressure  
Sea Level Pressure 29.77 in    
Wind  
Wind Speed 7 mph (WNW)    
Max Wind Speed 18 mph    
Max Gust Speed 26 mph    
Visibility 8 miles    
Events Rain    
T = Trace of Precipitation, MM = Missing Value Source: NWS Daily Summary

Daily Weather History Graph

Daily Weather History Graph

Search for Another Location

Airport or City:

Astronomy

Sep. 18, 2012 Rise Set
Actual Time 7:23 AM EDT 7:40 PM EDT
Civil Twilight 6:56 AM EDT 8:07 PM EDT
Nautical Twilight 6:25 AM EDT 8:38 PM EDT
Astronomical Twilight 5:54 AM EDT 9:09 PM EDT
Moon 10:18 AM EDT (9/18) 9:07 PM EDT (9/18)
Length of Visible Light 13h 10m
Length of Day
12h 17m
Waxing Crescent, 9% of the Moon is Illuminated
Sep 18
Waxing Crescent
Sep 22
First Quarter
Sep 29
Full
Oct 8
Last Quarter
Oct 15
New

Hourly Weather History & Observations

Time (EDT) Temp. Dew Point Humidity Pressure Visibility Wind Dir Wind Speed Gust Speed Precip Events Conditions
12:34 AM 64.4 °F 64.4 °F 100% 29.76 in 6.0 mi ESE 3.5 mph - 0.09 in Rain Rain
12:54 AM 64.9 °F 64.9 °F 100% 29.73 in 6.0 mi ESE 3.5 mph - 0.12 in Rain Rain
1:04 AM 64.4 °F 64.4 °F 100% 29.74 in 7.0 mi ESE 3.5 mph - 0.01 in Rain Light Rain
1:26 AM 64.4 °F 64.4 °F 100% 29.74 in 1.8 mi Calm Calm - 0.04 in Rain Light Rain
1:34 AM 64.4 °F 64.4 °F 100% 29.74 in 3.0 mi Calm Calm - 0.04 in Rain Light Rain
1:54 AM 64.0 °F 64.0 °F 100% 29.71 in 5.0 mi South 4.6 mph - 0.05 in Rain Light Rain
2:26 AM 64.4 °F 64.4 °F 100% 29.72 in 9.0 mi West 3.5 mph - 0.01 in Rain Light Rain
2:37 AM 64.4 °F 64.4 °F 100% 29.72 in 8.0 mi Calm Calm - 0.02 in   Overcast
2:54 AM 64.0 °F 64.0 °F 100% 29.70 in 10.0 mi Calm Calm - 0.02 in   Overcast
3:42 AM 64.4 °F 64.4 °F 100% 29.70 in 10.0 mi SW 4.6 mph - 0.00 in Rain Light Rain
3:54 AM 64.0 °F 64.0 °F 100% 29.68 in 10.0 mi SW 4.6 mph - 0.00 in Rain Light Rain
4:07 AM 64.4 °F 64.4 °F 100% 29.69 in 9.0 mi SW 5.8 mph - 0.00 in Rain Light Rain
4:54 AM 64.0 °F 64.0 °F 100% 29.66 in 10.0 mi WSW 6.9 mph - 0.01 in   Overcast
5:54 AM 64.9 °F 64.0 °F 97% 29.66 in 10.0 mi WSW 5.8 mph - 0.00 in   Overcast
6:54 AM 64.9 °F 64.9 °F 100% 29.68 in 9.0 mi WSW 6.9 mph - N/A   Overcast
7:32 AM 64.4 °F 64.4 °F 100% 29.70 in 1.8 mi WNW 5.8 mph - 0.00 in Rain Light Rain
7:48 AM 64.4 °F 64.4 °F 100% 29.70 in 3.0 mi West 8.1 mph - 0.10 in Rain Rain
7:54 AM 64.9 °F 64.9 °F 100% 29.68 in 2.5 mi West 5.8 mph - 0.11 in Rain Rain
7:59 AM 64.4 °F 64.4 °F 100% 29.70 in 3.0 mi West 5.8 mph - 0.01 in Rain Light Rain
8:12 AM 64.4 °F 64.4 °F 100% 29.70 in 4.0 mi West 4.6 mph - 0.02 in Rain Light Rain
8:30 AM 64.4 °F 64.4 °F 100% 29.71 in 1.8 mi West 10.4 mph - 0.04 in Rain Rain
8:46 AM 64.4 °F 64.4 °F 100% 29.72 in 3.0 mi WNW 5.8 mph - 0.13 in Rain Light Rain
8:54 AM 64.9 °F 64.0 °F 97% 29.70 in 6.0 mi WNW 5.8 mph - 0.13 in Rain Light Rain
8:58 AM 64.4 °F 64.4 °F 100% 29.72 in 7.0 mi WNW 5.8 mph - 0.00 in Rain Light Rain
9:54 AM 66.0 °F 64.9 °F 96% 29.71 in 6.0 mi WNW 9.2 mph - 0.00 in   Overcast
10:54 AM 66.0 °F 63.0 °F 90% 29.73 in 8.0 mi NNW 9.2 mph - N/A   Overcast
11:01 AM 66.2 °F 62.6 °F 88% 29.76 in 9.0 mi NW 12.7 mph 18.4 mph N/A   Overcast
11:51 AM 62.6 °F 60.8 °F 94% 29.78 in 8.0 mi NW 18.4 mph 26.5 mph 0.00 in Rain Light Rain
11:54 AM 63.0 °F 60.1 °F 90% 29.76 in 9.0 mi NW 12.7 mph 26.5 mph 0.00 in Rain Light Rain
12:54 PM 63.0 °F 59.0 °F 87% 29.78 in 10.0 mi WNW 10.4 mph 18.4 mph 0.00 in   Overcast
1:01 PM 62.6 °F 59.0 °F 88% 29.80 in 10.0 mi NW 9.2 mph - N/A   Overcast
1:40 PM 60.8 °F 57.2 °F 88% 29.81 in 10.0 mi NW 12.7 mph 21.9 mph N/A   Overcast
1:54 PM 62.1 °F 59.0 °F 90% 29.80 in 10.0 mi NW 11.5 mph - N/A   Overcast
2:54 PM 60.1 °F 57.9 °F 93% 29.82 in 5.0 mi WNW 11.5 mph 18.4 mph 0.00 in Rain Light Rain
3:54 PM 61.0 °F 55.9 °F 83% 29.83 in 10.0 mi NW 12.7 mph - 0.00 in   Overcast
4:01 PM 60.8 °F 55.4 °F 82% 29.85 in 10.0 mi NW 16.1 mph 21.9 mph N/A   Overcast
4:54 PM 62.1 °F 53.1 °F 72% 29.84 in 10.0 mi NW 9.2 mph 18.4 mph N/A   Scattered Clouds
5:54 PM 66.0 °F 52.0 °F 60% 29.86 in 10.0 mi NW 9.2 mph - N/A   Clear
6:54 PM 63.0 °F 48.9 °F 60% 29.88 in 10.0 mi WNW 11.5 mph - N/A   Clear
7:54 PM 59.0 °F 48.0 °F 67% 29.92 in 10.0 mi NW 4.6 mph - N/A   Clear
8:54 PM 55.9 °F 46.9 °F 72% 29.95 in 10.0 mi NW 4.6 mph - N/A   Clear
9:54 PM 54.0 °F 45.0 °F 72% 29.99 in 10.0 mi NW 3.5 mph - N/A   Clear
10:54 PM 53.1 °F 45.0 °F 74% 30.01 in 10.0 mi WNW 3.5 mph - N/A   Clear
11:54 PM 51.1 °F 43.0 °F 74% 30.04 in 10.0 mi NW 6.9 mph - N/A   Clear